Effective Sunday, March 17, 2024, the National Weather Service National Data Buoy Center will discontinue its Dial-A-Buoy Interactive Voice Response system. For more information, see Service Change Notice 24-06 (PDF).

Station BATN6 - 8518750 - The Battery, NY Image indicating link to RSS feed of recent meteorological observations for station BATN6


Conditions at BATN6 as of
(9:00 am EST)
1400 GMT on 02/26/2024:
     

Click on the graph icon in the table below to see a time series plot of the last five days of that observation.

5-day plot - Atmospheric Pressure Atmospheric Pressure (PRES):30.01 in
5-day plot - Pressure Tendency Pressure Tendency (PTDY):+0.01 in ( Rising )
5-day plot - Air Temperature Air Temperature (ATMP): 36.7 °F
5-day plot - Water Temperature Water Temperature (WTMP): 40.6 °F
NOS Water Level Observation Network Water Level
Previous observations
TIME
(EST)
5-day plot - Wind Direction
WDIR
 
5-day plot - Wind Speed
WSPD
kts
5-day plot - Wind Gust
GST
kts
5-day plot - Wave Height
WVHT
ft
5-day plot - Dominant Wave Period
DPD
sec
5-day plot - Average Wave Period
APD
sec
5-day plot - Mean Wave Direction
MWD
 
5-day plot - Atmospheric Pressure
PRES
in
5-day plot - Pressure Tendency
PTDY
in
5-day plot - Air Temperature
ATMP
°F
5-day plot - Water Temperature
WTMP
°F
5-day plot - Dew Point
DEWP
°F
5-day plot - Salinity
SAL
psu
5-day plot - Visibility
VIS
nmi
5-day plot - Tide (above MLLW)
TIDE
ft
2024-02-26 08:54 am-------30.03- 36.7 40.6----
2024-02-26 08:48 am-------30.02- 36.1 40.6----
2024-02-26 08:42 am-------30.02- 36.5 40.6----
2024-02-26 08:36 am-------30.02- 36.5 40.6----
2024-02-26 08:30 am-------30.01- 36.3 40.6----
2024-02-26 08:24 am-------30.02- 36.3 40.6----
2024-02-26 08:18 am-------30.02- 36.3 40.6----
2024-02-26 08:12 am-------30.02- 36.7 40.6----
2024-02-26 08:06 am-------30.03- 36.1 40.6----
2024-02-26 08:00 am-------30.03+0.02 36.1 40.6----
2024-02-26 07:54 am-------30.03- 35.8 40.6----
2024-02-26 07:48 am-------30.02- 36.1 40.6----
2024-02-26 07:42 am-------30.01- 35.8 40.8----
2024-02-26 07:36 am-------30.01- 35.6 40.8----
2024-02-26 07:30 am-------30.02- 35.4 40.6----
2024-02-26 07:24 am-------30.02- 35.2 40.5----
2024-02-26 07:18 am-------30.01- 35.1 40.5----
2024-02-26 07:12 am-------30.01- 35.4 40.5----
2024-02-26 07:06 am-------30.01- 35.4 40.5----
2024-02-26 07:00 am-------30.01+0.00 35.1 40.3----
2024-02-26 06:54 am-------30.01- 34.9 40.3----
2024-02-26 06:48 am-------30.01- 35.1 40.3----
2024-02-26 06:42 am-------30.00- 34.9 40.3----
2024-02-26 06:36 am-------30.00- 34.9 40.3----
2024-02-26 06:30 am-------30.00- 34.9 40.3----
2024-02-26 06:24 am-------30.00- 34.7 40.3----
2024-02-26 06:18 am-------30.00- 34.7 40.3----
2024-02-26 06:12 am-------30.00- 34.7 40.3----
2024-02-26 06:06 am-------30.00- 34.7 40.3----
2024-02-26 06:00 am-------30.00-0.03 34.5 40.3----
2024-02-26 05:54 am-------30.00- 34.5 40.3----
2024-02-26 05:48 am-------30.00- 34.7 40.3----
2024-02-26 05:42 am-------30.00- 34.7 40.3----
2024-02-26 05:36 am-------30.00- 34.5 40.3----
2024-02-26 05:30 am-------30.00- 34.5 40.3----
2024-02-26 05:24 am-------30.00- 34.3 40.3----
2024-02-26 05:18 am-------30.00- 34.5 40.1----
2024-02-26 05:12 am-------30.00- 34.3 40.1----
2024-02-26 05:06 am-------30.01- 34.5 40.1----
2024-02-26 05:00 am-------30.01-0.02 34.5 40.3----
2024-02-26 04:54 am-------30.01- 34.7 40.3----
2024-02-26 04:48 am-------30.01- 34.5 40.1----
2024-02-26 04:42 am-------30.01- 34.9 40.1----
2024-02-26 04:36 am-------30.01- 34.5 40.1----
2024-02-26 04:30 am-------30.01- 34.5 40.1----
2024-02-26 04:24 am-------30.01- 34.5 40.1----
2024-02-26 04:18 am-------30.01- 34.7 40.3----
2024-02-26 04:12 am-------30.01- 34.3 40.3----
2024-02-26 04:06 am-------30.01- 34.5 40.3----
2024-02-26 04:00 am-------30.01-0.03 34.3 40.3----
2024-02-26 03:54 am-------30.01- 34.5 40.1----
2024-02-26 03:48 am-------30.02- 34.5 40.1----
2024-02-26 03:42 am-------30.02- 34.3 40.3----
2024-02-26 03:36 am-------30.02- 34.3 40.3----
2024-02-26 03:30 am-------30.02- 34.3 40.3----
2024-02-26 03:24 am-------30.03- 34.5 40.3----
2024-02-26 03:18 am-------30.03- 34.2 40.3----
2024-02-26 03:12 am-------30.03- 34.2 40.3----
2024-02-26 03:06 am-------30.03- 34.3 40.1----
2024-02-26 03:00 am-------30.03+0.00 34.3 40.1----
2024-02-26 02:54 am-------30.03- 34.3 40.1----
2024-02-26 02:48 am-------30.02- 34.2 40.1----
2024-02-26 02:42 am-------30.02- 34.2 40.1----
2024-02-26 02:36 am-------30.02- 34.0 39.9----
2024-02-26 02:30 am-------30.02- 34.0 39.9----
2024-02-26 02:24 am-------30.02- 34.2 39.7----
2024-02-26 02:18 am-------30.03- 34.0 39.7----
2024-02-26 02:12 am-------30.03- 34.5 39.6----
2024-02-26 02:06 am-------30.03- 34.3 39.9----
2024-02-26 02:00 am-------30.03-0.01 34.5 39.7----
2024-02-26 01:54 am-------30.03- 34.3 39.7----
2024-02-26 01:48 am-------30.03- 34.2 39.7----
2024-02-26 01:42 am-------30.03- 34.2 39.7----
2024-02-26 01:36 am-------30.03- 34.2 39.9----
2024-02-26 01:30 am-------30.03- 34.2 40.3----
2024-02-26 01:24 am-------30.03- 34.2 40.3----
2024-02-26 01:18 am-------30.03- 34.2 40.1----
2024-02-26 01:12 am-------30.03- 34.5 39.9----
2024-02-26 01:06 am-------30.03- 34.5 39.7----
2024-02-26 01:00 am-------30.03-0.01 34.3 39.9----
2024-02-26 12:54 am-------30.03- 34.5 40.3----
2024-02-26 12:48 am-------30.03- 34.3 40.5----
2024-02-26 12:42 am-------30.03- 34.3 40.5----
2024-02-26 12:36 am-------30.03- 34.7 40.5----
2024-02-26 12:30 am-------30.03- 34.7 40.5----
2024-02-26 12:24 am-------30.03- 34.7 40.3----
2024-02-26 12:18 am-------30.03- 34.7 40.3----
2024-02-26 12:12 am-------30.03- 34.9 40.3----
2024-02-26 12:06 am-------30.03- 35.1 40.3----
2024-02-26 12:00 am-------30.03-0.02 35.1 40.3----
2024-02-25 11:54 pm-------30.03- 35.1 40.3----
2024-02-25 11:48 pm-------30.03- 35.1 40.3----
2024-02-25 11:42 pm-------30.03- 35.1 40.3----
2024-02-25 11:36 pm-------30.03- 35.1 40.3----
2024-02-25 11:30 pm-------30.03- 35.1 40.3----
2024-02-25 11:24 pm-------30.04- 35.1 40.3----
2024-02-25 11:18 pm-------30.04- 35.1 40.1----
2024-02-25 11:12 pm-------30.04- 35.1 40.1----
2024-02-25 11:06 pm-------30.04- 35.2 40.1----
2024-02-25 11:00 pm-------30.04+0.00 35.2 39.9----
2024-02-25 10:54 pm-------30.04- 35.2 40.1----
2024-02-25 10:48 pm-------30.05- 35.2 40.1----
2024-02-25 10:42 pm-------30.04- 35.6 40.1----
2024-02-25 10:36 pm-------30.04- 35.8 40.1----
2024-02-25 10:30 pm-------30.05- 35.6 40.1----
2024-02-25 10:24 pm-------30.05- 35.8 40.1----
2024-02-25 10:18 pm-------30.05- 35.6 40.3----
2024-02-25 10:12 pm-------30.05- 35.6 40.3----
2024-02-25 10:06 pm-------30.05- 35.4 40.3----
2024-02-25 10:00 pm-------30.05- 35.4 40.5----
2024-02-25 09:54 pm-------30.05- 35.4 40.3----
2024-02-25 09:48 pm-------30.05- 35.6-----
2024-02-25 09:42 pm-------30.05- 35.4-----
2024-02-25 09:36 pm-------30.05- 35.6-----
2024-02-25 09:30 pm-------30.05- 35.6 40.3----
2024-02-25 09:24 pm-------30.05- 35.4 40.3----
2024-02-25 09:18 pm-------30.05- 35.4 40.3----
2024-02-25 09:12 pm-------30.05- 35.4 40.5----
2024-02-25 09:06 pm-------30.05- 35.4 40.5----
2024-02-25 09:00 pm-------30.05+0.00 35.4 40.5----
2024-02-25 08:54 pm-------30.05- 35.6 40.6----
2024-02-25 08:48 pm-------30.05- 35.4 40.8----
2024-02-25 08:42 pm-------30.05- 35.8 40.8----
2024-02-25 08:36 pm-------30.05- 35.6 40.8----
2024-02-25 08:30 pm-------30.05- 35.6 40.6----
2024-02-25 08:24 pm-------30.05- 35.6 40.6----
2024-02-25 08:18 pm-------30.05- 35.6 40.6----
2024-02-25 08:12 pm-------30.04- 35.4 40.8----
2024-02-25 08:06 pm-------30.04- 35.4 40.8----
2024-02-25 08:00 pm-------30.05+0.01- 40.6----
2024-02-25 07:54 pm-------30.05-- 40.6----
2024-02-25 07:48 pm-------30.05- 35.6 40.8----
2024-02-25 07:42 pm-------30.05- 35.6 40.8----
2024-02-25 07:36 pm-------30.05- 35.4 40.8----
2024-02-25 07:30 pm-------30.05- 35.6 40.8----
2024-02-25 07:24 pm-------30.05- 35.4 40.6----
2024-02-25 07:18 pm-------30.04-- 40.6----
2024-02-25 07:12 pm-------30.04-- 40.6----
2024-02-25 07:06 pm-------30.04-- 40.6----
2024-02-25 07:00 pm---------- 40.6----
2024-02-25 06:54 pm---------- 40.5----
2024-02-25 06:48 pm-------30.05- 35.6 40.5----
2024-02-25 06:42 pm-------30.05- 35.2 40.5----
2024-02-25 06:36 pm-------30.05- 35.2 40.5----
2024-02-25 06:30 pm-------30.05- 35.1 40.5----
2024-02-25 06:24 pm-------30.05- 35.1 40.3----
2024-02-25 06:00 pm-------30.05- 34.7 40.6----
2024-02-25 05:54 pm-------30.04- 34.7 40.6----
2024-02-25 05:48 pm-------30.04- 34.9 40.6----
2024-02-25 05:42 pm-------30.04- 34.9 40.6----
2024-02-25 05:36 pm-------30.04- 35.2 40.6----
2024-02-25 05:30 pm-------30.04- 34.9 40.6----
2024-02-25 05:24 pm-------30.04- 35.4 40.6----
2024-02-25 05:18 pm-------30.04- 35.4 40.8----
2024-02-25 05:12 pm-------30.04- 35.6 40.8----
2024-02-25 05:06 pm-------30.04- 36.0 40.8----
2024-02-25 05:00 pm-------30.04-0.03 35.8 40.8----
2024-02-25 04:54 pm-------30.04- 36.3 40.8----
2024-02-25 04:48 pm-------30.04-- 40.8----
2024-02-25 04:42 pm-------30.04-- 40.8----
2024-02-25 04:36 pm-------30.04-- 40.8----
2024-02-25 04:30 pm-------30.04-- 40.8----
2024-02-25 04:24 pm-------30.05-- 40.8----
2024-02-25 04:18 pm-------30.05- 37.6 40.8----
2024-02-25 04:12 pm-------30.05- 37.9 40.8----
2024-02-25 04:06 pm-------30.05- 37.4 40.8----
2024-02-25 04:00 pm-------30.04-0.04- 41.0----
2024-02-25 03:54 pm-------30.04-- 41.0----
2024-02-25 03:48 pm-------30.04- 37.2 41.0----
2024-02-25 03:42 pm-------30.04- 37.4 41.0----
2024-02-25 03:36 pm-------30.05- 37.0 41.0----
2024-02-25 03:30 pm-------30.05- 37.2 41.0----
2024-02-25 03:24 pm-------30.05- 36.9 41.2----
2024-02-25 03:18 pm-------30.05-- 41.2----
2024-02-25 03:12 pm-------30.05-- 41.0----
2024-02-25 03:06 pm-------30.05-- 41.0----
2024-02-25 03:00 pm---------- 41.0----
2024-02-25 02:54 pm---------- 41.0----
2024-02-25 02:48 pm-------30.06- 36.3 41.0----
2024-02-25 02:42 pm-------30.06- 36.9 41.0----
2024-02-25 02:36 pm-------30.06- 35.4 41.0----
2024-02-25 02:30 pm-------30.06- 35.8 41.0----
2024-02-25 02:24 pm-------30.06- 35.8 41.0----
2024-02-25 02:18 pm-------30.06- 35.6 41.0----
2024-02-25 02:12 pm-------30.06- 35.4 41.0----
2024-02-25 02:06 pm-------30.06- 35.6 41.0----
2024-02-25 02:00 pm-------30.07-0.06 35.4 40.8----
2024-02-25 01:54 pm-------30.07- 35.6 40.8----
2024-02-25 01:48 pm-------30.07- 36.3 40.8----
2024-02-25 01:42 pm-------30.07- 35.2 41.0----
2024-02-25 01:36 pm-------30.08- 34.0 41.0----
2024-02-25 01:30 pm-------30.08-- 40.8----
2024-02-25 01:24 pm-------30.08-- 41.0----
2024-02-25 01:18 pm-------30.08- 32.9 41.0----
2024-02-25 01:12 pm-------30.08- 33.3 41.0----
2024-02-25 01:06 pm-------30.08- 33.4 41.0----
2024-02-25 01:00 pm-------30.08-0.06 32.5 41.0----
2024-02-25 12:54 pm-------30.09- 34.0 41.0----
2024-02-25 12:48 pm-------30.09- 32.5 40.8----
2024-02-25 12:42 pm-------30.09- 32.9 41.0----
2024-02-25 12:36 pm-------30.10- 32.2 40.8----
2024-02-25 12:30 pm-------30.10- 31.5 40.8----
2024-02-25 12:24 pm-------30.10- 30.9 40.8----
2024-02-25 12:18 pm-------30.10- 31.1 40.8----
2024-02-25 12:12 pm-------30.11- 30.9 40.8----
2024-02-25 12:06 pm-------30.11- 30.6 40.8----
2024-02-25 12:00 pm-------30.11-0.03 30.4 40.6----
2024-02-25 11:54 am-------30.11- 31.1 40.6----
2024-02-25 11:48 am-------30.12- 31.5 40.8----
2024-02-25 11:42 am-------30.12- 30.6 40.6----
2024-02-25 11:36 am-------30.13- 29.7 40.6----
2024-02-25 11:30 am-------30.13- 29.1 40.6----
2024-02-25 11:24 am-------30.13- 30.2 40.6----
2024-02-25 11:18 am-------30.13-- 40.8----
2024-02-25 11:12 am-------30.13-- 40.8----
2024-02-25 11:06 am-------30.13-- 40.6----
2024-02-25 11:00 am-------30.13+0.00- 40.6----
2024-02-25 10:54 am-------30.14-- 40.6----
2024-02-25 10:48 am-------30.14- 28.2 40.6----
2024-02-25 10:42 am-------30.14- 27.9 40.6----
2024-02-25 10:36 am-------30.14- 27.9 40.6----
2024-02-25 10:30 am--------- 27.7 40.5----
2024-02-25 10:24 am--------- 27.7 40.5----
2024-02-25 10:18 am-------30.14-- 40.6----
2024-02-25 10:12 am-------30.14-- 40.6----
2024-02-25 10:06 am-------30.14-- 40.6----
2024-02-25 10:00 am-------30.15+0.04- 40.6----
2024-02-25 09:54 am-------30.15-- 40.6----
2024-02-25 09:48 am-------30.15- 26.8 40.6----
2024-02-25 09:42 am-------30.14- 26.6 40.6----
2024-02-25 09:36 am-------30.14- 26.6 40.6----
2024-02-25 09:30 am--------- 26.4 40.6----
2024-02-25 09:24 am--------- 26.2 40.6----
2024-02-25 09:18 am-------30.14-- 40.8----
2024-02-25 09:12 am-------30.14-- 40.8----
2024-02-25 09:06 am-------30.14-- 40.8----
2024-02-25 09:00 am-------30.14+0.04- 40.8----
2024-02-25 08:54 am-------30.14-- 40.8----